This demonstration page uses our WeatherBlox Daily Observations layout. Learn more.

Left ArrowRight Arrow

39.51506, -84.39828

Hourly Observations for May 18, 2020

Temp ( °F °C ) Dew Point ( °F °C ) Humidity (%) Winds ( mph kmh ) Pressure ( in mb ) Visibility ( mi km ) Precip ( " mm )
12:15 am 00:15 undefined 65 18.4 65 18.3 99 99 Calm 29.8 1009 N/A 0 0
12:35 am 00:35 undefined 65 18.1 64 18 99 99 Calm 29.8 1009 N/A 0 0
12:55 am 00:55 undefined 64 18 64 17.8 99 99 WSW 3 6 29.8 1009 N/A 0 0
1:15 am 01:15 undefined 67 19.4 65 18.3 93 93 Calm 29.8 1009 N/A 0 0
1:35 am 01:35 undefined 67 19.2 65 18.4 95 95 Calm 29.79 1009 N/A 0 0
1:55 am 01:55 undefined 69 20.5 65 18.3 87 87 Calm 29.78 1009 N/A 0 0
2:15 am 02:15 undefined 69 20.4 65 18.4 88 88 Calm 29.78 1009 N/A 0 0
2:35 am 02:35 Cloudy 68 20.2 65 18.4 89 89 Calm 29.77 1008 N/A 0 0
2:55 am 02:55 undefined 68 19.9 65 18.3 91 91 Calm 29.76 1008 N/A 0 0
3:15 am 03:15 undefined 69 20.4 65 18.2 87 87 Calm 29.76 1008 N/A 0 0
3:35 am 03:35 undefined 69 20.5 65 18.2 87 87 S 7 11 29.75 1008 N/A 0 0
3:55 am 03:55 Cloudy 70 20.9 65 18.3 85 85 SSW 5 7 29.75 1008 N/A 0 0
4:15 am 04:15 Cloudy 70 21.2 65 18.2 83 83 S 6 9 29.74 1007 N/A 0 0
4:35 am 04:35 Mostly Cloudy 71 21.6 65 18.1 81 81 S 9 15 29.74 1007 N/A 0 0
4:55 am 04:55 Mostly Cloudy 71 21.4 64 18 81 81 S 9 15 29.74 1007 N/A 0 0
5:15 am 05:15 Cloudy 70 21.3 65 18.1 82 82 S 6 9 29.75 1008 N/A 0 0
5:35 am 05:35 Cloudy 70 21.1 65 18.1 83 83 SSE 5 7 29.75 1008 N/A 0 0
5:55 am 05:55 undefined 69 20.7 65 18.3 86 86 S 7 11 29.74 1007 N/A 0 0
6:15 am 06:15 Mostly Cloudy 69 20.5 65 18.3 87 87 S 6 9 29.74 1007 N/A 0 0
6:35 am 06:35 Cloudy 69 20.7 65 18.4 87 87 S 6 9 29.74 1007 N/A 0 0
6:55 am 06:55 Cloudy 69 20.8 65 18.3 86 86 S 9 15 29.75 1008 N/A 0 0
7:15 am 07:15 Cloudy 70 21.2 65 18.2 83 83 S 8 13 29.75 1008 N/A 0 0
7:35 am 07:35 Cloudy 70 21.2 65 18.2 83 83 S 7 11 29.75 1008 N/A 0 0
7:55 am 07:55 Cloudy 71 21.5 65 18.3 82 82 S 10 17 29.75 1007 N/A 0 0
8:15 am 08:15 Cloudy 71 21.4 65 18.2 82 82 S 10 17 29.74 1007 N/A 0 0
8:35 am 08:35 Mostly Cloudy 72 22.1 65 18.2 79 79 SSW 13 20 29.74 1007 N/A 0 0
8:55 am 08:55 Cloudy 72 22.1 65 18.1 78 78 S 13 20 29.75 1007 N/A 0 0
9:15 am 09:15 Cloudy 72 22.2 64 18 77 77 SSW 15 24 29.75 1007 N/A 0 0
9:35 am 09:35 Cloudy 72 22 65 18.1 79 79 SSW 9 15 29.75 1007 N/A 0 0
9:55 am 09:55 Cloudy 71 21.9 65 18.1 79 79 SSW 12 19 29.75 1007 N/A 0 0
10:15 am 10:15 Cloudy 71 21.7 65 18.4 82 82 SSW 13 20 29.76 1008 N/A 0 0
10:35 am 10:35 undefined 69 20.4 66 18.9 91 91 SW 20 31 29.77 1008 N/A 0 0
10:55 am 10:55 Cloudy with Nearby Thunderstorms 67 19.3 65 18.6 96 96 WSW 10 17 29.79 1009 N/A 0 0
11:15 am 11:15 undefined 63 17.3 62 16.6 96 96 NW 12 19 29.79 1009 N/A 0 0
11:35 am 11:35 undefined 63 17.3 62 16.7 96 96 Calm 29.79 1009 N/A 0 0
11:55 am 11:55 undefined 65 18.1 63 17.4 96 96 NNE 3 6 29.78 1008 N/A 0 0
12:15 pm 12:15 Cloudy 64 17.7 63 17.3 98 98 Calm 29.78 1008 N/A 0 0
12:35 pm 12:35 undefined 64 17.5 63 17.1 98 98 Calm 29.79 1009 N/A 0 0
12:55 pm 12:55 undefined 63 17.3 63 17 98 98 Calm 29.78 1009 N/A 0 0
1:15 pm 13:15 Partly Cloudy with Nearby Thunderstorms 63 17 62 16.5 97 97 NNW 7 11 29.78 1009 N/A 0 0
1:35 pm 13:35 Cloudy 63 17.2 62 16.6 96 96 NNW 8 13 29.78 1009 N/A 0 0
1:55 pm 13:55 undefined 63 17.3 62 16.4 94 94 N 7 11 29.78 1009 N/A 0 0
2:15 pm 14:15 undefined 63 17.3 62 16.4 94 94 Calm 29.78 1009 N/A 0 0
2:35 pm 14:35 undefined 62 16.8 60 15.8 94 94 NNE 3 6 29.78 1009 N/A 0 0
2:55 pm 14:55 undefined 62 16.7 60 15.8 94 94 N 3 6 29.78 1009 N/A 0 0
3:15 pm 15:15 undefined 62 16.6 60 15.5 93 93 N 6 9 29.77 1008 N/A 0 0
3:35 pm 15:35 Cloudy 62 16.6 61 15.9 96 96 NNW 3 6 29.77 1008 N/A 0 0
3:55 pm 15:55 Partly Cloudy with Nearby Thunderstorms 62 16.8 61 16.2 96 96 N 5 7 29.77 1008 N/A 0 0
4:15 pm 16:15 Cloudy with Nearby Thunderstorms 62 16.4 60 15.6 95 95 WSW 8 13 29.79 1009 N/A 0 0
4:35 pm 16:35 undefined 60 15.7 58 14.7 94 94 NNE 7 11 29.79 1009 N/A 0 0
4:55 pm 16:55 undefined 59 15.2 58 14.7 97 97 NE 7 11 29.79 1009 N/A 0 0
5:15 pm 17:15 undefined 60 15.5 59 15.1 97 97 NE 6 9 29.77 1008 N/A 0 0
5:35 pm 17:35 undefined 60 15.6 59 15.2 97 97 NE 6 9 29.77 1008 N/A 0 0
5:55 pm 17:55 undefined 60 15.7 60 15.4 98 98 ENE 3 6 29.77 1008 N/A 0 0
6:15 pm 18:15 undefined 60 15.7 60 15.5 99 99 E 7 11 29.77 1008 N/A 0 0
6:35 pm 18:35 undefined 60 15.7 60 15.6 99 99 E 7 11 29.77 1008 N/A 0 0
6:55 pm 18:55 Cloudy 60 15.7 60 15.7 100 100 Calm 29.77 1008 N/A 0 0
7:15 pm 19:15 Cloudy 60 15.8 60 15.7 99 99 NE 3 6 29.76 1008 N/A 0 0
7:35 pm 19:35 undefined 60 15.8 60 15.7 99 99 Calm 29.77 1008 N/A 0 0
7:55 pm 19:55 Partly Cloudy with Thunderstorms 61 15.9 61 15.9 100 100 Calm 29.78 1009 N/A 0 0
8:15 pm 20:15 Cloudy 61 15.9 61 15.9 100 100 Calm 29.78 1009 N/A 0 0
8:35 pm 20:35 undefined 61 15.9 61 15.9 100 100 Calm 29.78 1009 N/A 0 0
8:55 pm 20:55 Cloudy 61 16 61 16 100 100 Calm 29.79 1009 N/A 0 0
9:15 pm 21:15 undefined 60 15.7 60 15.7 100 100 W 3 6 29.81 1010 N/A 0 0
9:35 pm 21:35 undefined 60 15.6 60 15.6 100 100 ENE 10 17 29.77 1008 N/A 0 0
9:55 pm 21:55 undefined 60 15.7 60 15.7 100 100 E 7 11 29.77 1008 N/A 0 0
10:15 pm 22:15 undefined 60 15.8 60 15.8 100 100 ENE 6 9 29.76 1008 N/A 0 0
10:35 pm 22:35 Mostly Cloudy 60 15.8 60 15.8 100 100 Calm 29.76 1008 N/A 0 0
10:55 pm 22:55 Cloudy 61 16 61 15.9 99 99 Calm 29.78 1009 N/A 0 0
11:15 pm 23:15 Cloudy 61 16 61 15.9 99 99 Calm 29.78 1009 N/A 0 0
11:35 pm 23:35 Cloudy 61 16.1 61 16 99 99 Calm 29.77 1008 N/A 0 0
11:55 pm 23:55 Cloudy 61 16 61 15.9 99 99 Calm 29.77 1008 N/A 0 0

Powered by AerisWeather